リニア彗星

234P/LINEAR (2017)

English version
Home page
Updated on December 28, 2022

---------------------------------------------------------------------

・ プロフィール

・ 写真集

・ 軌道要素

Epoch 2017 June 16.0 TT = JDT 2457920.5
T 2017 June 1.69271 TT                                  MPCW
q   2.8478546            (2000.0)            P               Q
n   0.13238457     Peri.  358.09554     -0.99927894     -0.03795621
a   3.8128038      Node   179.72363     +0.03693981     -0.97776176
e   0.2530813      Incl.   11.52562     +0.00877802     -0.20625533
P   7.45
From 214 observations 2001 Dec. 26-2018 May 17, mean residual 0".6.

・ 光度変化

        m1 = 12.5 + 5 logΔ + 10.0 log r

---------------------------------------------------------------------

軌道要素はM.P.E.C. 2018-K95に掲載されたものです。
光度グラフはComet for Windowsで作成したものです。

---------------------------------------------------------------------

Copyright(C) Seiichi Yoshida (comet@aerith.net). All rights reserved.